Location: Blue Mountain Vista Observatory
(40.6992°N, 75.9422°W)
Time: 20:13:46
(UTC-05:00)

IDEFIX/ARIANE 42P - Visible Passes

Search period start: 17 November 2017 00:00
Search period end: 27 November 2017 00:00
Orbit: 785 x 803 km, 98.2° (Epoch: 17 November)

Date Brightness Start Highest point End Pass type
(mag) Time Alt. Az. Time Alt. Az. Time Alt. Az.
17 Nov 3.1 05:16:12 10° NNE 05:21:21 62° E 05:26:28 10° S visible
17 Nov 6.0 18:18:37 10° W 18:19:45 11° W 18:20:54 10° WNW visible
18 Nov 4.3 04:48:14 10° NNE 04:52:55 33° E 04:57:34 10° SSE visible
18 Nov 5.4 17:47:15 10° SW 17:51:06 21° W 17:54:58 10° NW visible
19 Nov 5.2 04:20:48 10° NE 04:24:22 18° E 04:27:53 10° SE visible
19 Nov 2.7 05:59:14 10° N 06:04:15 52° WNW 06:09:16 10° SSW visible
19 Nov 4.3 17:17:44 10° SSW 17:22:34 37° W 17:27:24 10° NNW visible
20 Nov 2.6 05:30:46 10° NNE 05:35:59 86° ESE 05:41:11 10° SSW visible
21 Nov 3.6 05:02:37 10° NNE 05:07:37 47° E 05:12:34 10° S visible
21 Nov 5.7 18:03:02 10° SW 18:05:53 15° W 18:08:45 10° WNW visible
22 Nov 4.7 04:34:51 10° NE 04:39:07 25° E 04:43:22 10° SSE visible
22 Nov 3.0 06:14:02 10° N 06:18:47 38° WNW 06:23:32 10° SW visible
22 Nov 4.9 17:32:55 10° SSW 17:37:18 27° W 17:41:42 10° NW visible
23 Nov 5.5 04:07:56 10° ENE 04:10:30 14° E 04:13:04 10° ESE visible
23 Nov 2.5 05:45:26 10° N 05:50:36 69° WNW 05:55:44 10° SSW visible
23 Nov 3.7 17:03:46 10° S 17:08:49 49° W 17:13:53 10° NNW visible
24 Nov 3.0 05:17:06 10° NNE 05:22:17 65° ESE 05:27:25 10° S visible
25 Nov 4.1 04:49:07 10° NNE 04:53:51 35° E 04:58:33 10° SSE visible
25 Nov 3.4 06:28:56 10° N 06:33:18 28° WNW 06:37:39 10° SW visible
25 Nov 5.4 17:48:20 10° SW 17:52:03 20° W 17:55:47 10° NW visible
26 Nov 5.1 04:21:37 10° NE 04:25:18 19° E 04:28:57 10° SE visible
26 Nov 2.7 06:00:10 10° N 06:05:09 50° WNW 06:10:09 10° SW visible
26 Nov 4.4 17:18:45 10° SSW 17:23:30 35° W 17:28:17 10° NNW visible
